Regional Weather Roundup
Issued by NWS

Home | Current Version | Previous Version | Graphics & Text | Print | Product List | Glossary On
Versions: 1 2 3 4 5 6 7 8 9 10 11 12 13 14 15 16 17 18 19 20 21 22 23 24 25 26 27 28 29 30 31 32 33 34 35 36 37 38 39 40 41 42 43 44 45 46 47 48 49 50
000
ASUS45 KBOU 240507
RWRCO

WEATHER ROUNDUP FOR COLORADO
NATIONAL WEATHER SERVICE DENVER/BOULDER CO
1000 PM MST THU FEB 23 2017

NOTE: "FAIR" INDICATES FEW OR NO CLOUDS BELOW 12000 FEET WITH NO
SIGNIFICANT WEATHER AND/OR OBSTRUCTIONS TO VISIBILITY.

COZ001>005-013-030-031-240600-
...NORTHWEST COLORADO...

CITY           SKY/WX    TMP DP  RH WIND       PRES   REMARKS
CRAIG          CLOUDY    23  16  74 CALM      29.74S
HAYDEN         FAIR      19  14  79 CALM      29.73S
MEEKER         LGT SNOW  23  20  88 W8        29.74S FOG     WCI  14
MOUNT WERNER   NOT AVBL
STEAMBOAT SPGS CLOUDY    19  17  93 CALM      29.72S
WALDEN         NOT AVBL
$$

COZ006>008-011-240600-
...WEST CENTRAL VALLEYS...

CITY           SKY/WX    TMP DP  RH WIND       PRES   REMARKS
GRAND JUNCTION FAIR      25  24  96 S3        29.80R
MONTROSE       FAIR      22  10  60 SE6       29.81R WCI  14
EAGLE          CLEAR     19  12  73 E7        29.76S WCI  10
RIFLE          CLOUDY    26  24  92 SW3       29.78S
DELTA          FAIR      32  13  44 W8        29.79R WCI  25
NUCLA          FAIR      25  10  54 E7        29.83R WCI  17
$$

COZ017>023-064>068-240600-
...SOUTHWEST COLORADO...

CITY           SKY/WX    TMP DP  RH WIND       PRES   REMARKS
DURANGO        FAIR      22   8  55 N5        29.77S WCI  16
CORTEZ         FAIR      22  15  75 NE7       29.80S WCI  13
PAGOSA SPRINGS FAIR      15   4  61 CALM      29.77R
TELLURIDE      CLOUDY    13  10  87 SE5       29.76S WCI   5
WOLF CREEK PAS FAIR       1  -4  78 SW12      29.70R WCI -15
$$

COZ009-010-012-014-032>034-037-058>063-240600-
...CENTRAL COLORADO...

CITY           SKY/WX    TMP DP  RH WIND       PRES   REMARKS
ASPEN          CLOUDY    16   8  71 SW6       29.70S WCI   7
BUENA VISTA    FAIR      20   4  52 SW7       29.70S WCI  11
COPPER MTN     LGT SNOW   5  -2  72 MISG      29.58S
BERTHOUD PASS  LGT SNOW  -2 -13  60 NW17      29.54F WCI -24
COTTONWOOD PAS CLOUDY    16   0  48 W12       29.65S WCI   3
GUNNISON       FAIR      14   6  70 NW3       29.75R
KREMMLING      FAIR      21  18  86 CALM      29.72S
LEADVILLE      FAIR       1  -5  75 NE7       29.63S WCI -12
MONARCH PASS   CLOUDY     3   0  85 SW18      29.70S WCI -17
SALIDA         FAIR      23  10  58 W5        29.80S WCI  17
SUNLIGHT       NOT AVBL
WILKERSON PASS FAIR       5  -4  66 W7        29.62F WCI  -7
$$

COZ069>075-240600-
...SAN LUIS VALLEY/SANGRE DE CRISTO MOUNTAINS...

CITY           SKY/WX    TMP DP  RH WIND       PRES   REMARKS
ALAMOSA        FAIR      21   5  50 W9        29.73S WCI  11
LA VETA PASS   FAIR      12   1  62 SW12G28   29.65S WCI  -2
SAGUACHE       FAIR      14   5  67 N12       29.74S WCI   0
$$

COZ035-036-038>040-240600-
...NORTHERN COLORADO FRONT RANGE...

CITY           SKY/WX    TMP DP  RH WIND       PRES   REMARKS
DENVER INTL AP FLURRIES  19  13  77 N8        29.84S WCI   9
DMNS CITY PARK   N/A     20  13  77 N12       29.86S WCI   7
AURORA         FLURRIES  17  14  88 N8        29.84S WCI   7
FRONT RANGE AP NOT AVBL
ERIE MUNI ARPT LGT SNOW  20  18  92 W3        29.87S
BOULDER MUN AP LGT SNOW  19  19 100 CALM      29.86S
CENTENNIAL     LGT SNOW  18  14  84 N10       29.83R FOG     WCI   6
BROOMFIELD     LGT SNOW  19  18  93 N5        29.85R WCI  13
FORT COLLINS   FLURRIES  20  14  77 N12       29.88R WCI   8
LONGMONT       CLOUDY    24  17  74 CALM      29.89S
$$

COZ041-046-047-076>085-087-088-240600-
...PIKES PEAK/PALMER DIVIDE AND SOUTHERN FOOTHILLS...

CITY           SKY/WX    TMP DP  RH WIND       PRES   REMARKS
COLO. SPRINGS  FAIR      19   9  65 NW20G36   29.73S WCI   3
A. F. ACADEMY  MIX PCPN  16  10  74 N20       29.74S WCI   0
SCHRIEVER AFB  FAIR      17  11  78 N14G21    29.75R WCI   3
ELLICOTT       FAIR     N/A N/A N/A N24G33      N/A
FALCON         FLURRIES  15  10  78 N16G26    29.73R WCI   0
FORT CARSON    FAIR      20  12  70 N16       29.74R WCI   6
LIMON          CLOUDY    18  15  88 N23G33    29.78S WCI   0
MONUMENT HILL  LGT SNOW  12  10  92 N13       29.77S WCI  -3
TRINIDAD       CLOUDY    29  22  75 NE10G20   29.75R WCI  20
$$

COZ042>045-048>051-090-091-240600-
...NORTHEAST COLORADO...

CITY           SKY/WX    TMP DP  RH WIND       PRES   REMARKS
GREELEY ARPT   CLOUDY    21  17  84 N12       29.89R WCI   9
AKRON          CLOUDY    20  17  88 N13       29.81S WCI   7
BURLINGTON     CLOUDY    24  19  81 N18G28    29.77S WCI  10
WRAY           NOT AVBL
STERLING       CLOUDY    23  19  86 N10       29.84S WCI  12
HOLYOKE        FLURRIES  25  21  86 N8        29.83S WCI  16
FORT MORGAN    FLURRIES  19  16  87 NW7       29.86S WCI  10
$$

COZ086-089-092>099-240600-
...SOUTHEAST COLORADO...

CITY           SKY/WX    TMP DP  RH WIND       PRES   REMARKS
PUEBLO         FAIR      26  13  57 N13G24    29.78R WCI  15
LA JUNTA       FAIR      28  18  66 NE8       29.81R WCI  20
LAMAR          CLOUDY    28  18  66 N10G20    29.80R WCI  19
SPRINGFIELD      N/A     28  22  78 N22G28    29.74R WCI  14
$$



USA.gov is the U.S. government's official web portal to all federal, state and local government web resources and services.